Time,TemperatureF,DewpointF,PressureIn,WindDirection,WindDirectionDegrees,WindSpeedMPH,WindSpeedGustMPH,Humidity,HourlyPrecipIn,Conditions,Clouds,dailyrainin,SoftwareType,DateUTC
2013-03-20 00:02:00,15.0,3.0,-100.00,ESE,110,11.0,18.0,60,-99.99,,,-99.99,,2013-03-20 05:02:00,
2013-03-20 00:12:00,15.0,3.0,-100.00,ESE,110,11.0,18.0,60,-99.99,,,-99.99,,2013-03-20 05:12:00,
2013-03-20 00:23:00,15.0,3.0,-100.00,ESE,110,11.0,18.0,60,-99.99,,,-99.99,,2013-03-20 05:23:00,
2013-03-20 00:43:00,13.0,2.0,-100.00,East,95,9.0,17.0,62,-99.99,,,-99.99,,2013-03-20 05:43:00,
2013-03-20 00:53:00,13.0,2.0,-100.00,East,95,9.0,17.0,62,-99.99,,,-99.99,,2013-03-20 05:53:00,
2013-03-20 01:02:00,13.0,2.0,-100.00,East,95,9.0,17.0,62,-99.99,,,-99.99,,2013-03-20 06:02:00,
2013-03-20 01:12:00,13.0,2.0,-100.00,East,95,9.0,17.0,62,-99.99,,,-99.99,,2013-03-20 06:12:00,
2013-03-20 01:22:00,13.0,2.0,-100.00,East,95,9.0,17.0,62,-99.99,,,-99.99,,2013-03-20 06:22:00,
2013-03-20 01:53:00,12.0,2.0,-100.00,SSW,205,9.0,17.0,64,-99.99,,,-99.99,,2013-03-20 06:53:00,
2013-03-20 02:02:00,12.0,2.0,-100.00,SSW,205,9.0,17.0,64,-99.99,,,-99.99,,2013-03-20 07:02:00,
2013-03-20 02:12:00,12.0,2.0,-100.00,SSW,205,9.0,17.0,64,-99.99,,,-99.99,,2013-03-20 07:12:00,
2013-03-20 02:22:00,12.0,2.0,-100.00,SSW,205,9.0,17.0,64,-99.99,,,-99.99,,2013-03-20 07:22:00,
2013-03-20 02:52:00,11.0,0.0,-100.00,South,175,13.0,18.0,60,-99.99,,,-99.99,,2013-03-20 07:52:00,
2013-03-20 03:02:00,11.0,0.0,-100.00,South,175,13.0,18.0,60,-99.99,,,-99.99,,2013-03-20 08:02:00,
2013-03-20 03:12:00,11.0,0.0,-100.00,South,175,13.0,18.0,60,-99.99,,,-99.99,,2013-03-20 08:12:00,
2013-03-20 03:22:00,11.0,0.0,-100.00,South,175,13.0,18.0,60,-99.99,,,-99.99,,2013-03-20 08:22:00,
2013-03-20 03:52:00,10.0,-2.0,-100.00,South,190,13.0,19.0,58,-99.99,,,-99.99,,2013-03-20 08:52:00,
2013-03-20 04:02:00,10.0,-2.0,-100.00,South,190,13.0,19.0,58,-99.99,,,-99.99,,2013-03-20 09:02:00,
2013-03-20 04:12:00,10.0,-2.0,-100.00,South,190,13.0,19.0,58,-99.99,,,-99.99,,2013-03-20 09:12:00,
2013-03-20 04:22:00,10.0,-2.0,-100.00,South,190,13.0,19.0,58,-99.99,,,-99.99,,2013-03-20 09:22:00,
2013-03-20 04:43:00,8.0,-3.0,-100.00,ESE,110,11.0,19.0,60,-99.99,,,-99.99,,2013-03-20 09:43:00,
2013-03-20 04:53:00,8.0,-3.0,-100.00,ESE,110,11.0,19.0,60,-99.99,,,-99.99,,2013-03-20 09:53:00,
2013-03-20 05:03:00,8.0,-3.0,-100.00,ESE,110,11.0,19.0,60,-99.99,,,-99.99,,2013-03-20 10:03:00,
2013-03-20 05:12:00,8.0,-3.0,-100.00,ESE,110,11.0,19.0,60,-99.99,,,-99.99,,2013-03-20 10:12:00,
2013-03-20 05:22:00,8.0,-3.0,-100.00,ESE,110,11.0,19.0,60,-99.99,,,-99.99,,2013-03-20 10:22:00,
2013-03-20 05:43:00,7.0,-4.0,-100.00,East,85,11.0,19.0,60,-99.99,,,-99.99,,2013-03-20 10:43:00,
2013-03-20 05:53:00,7.0,-4.0,-100.00,East,85,11.0,19.0,60,-99.99,,,-99.99,,2013-03-20 10:53:00,
2013-03-20 06:03:00,7.0,-4.0,-100.00,East,85,11.0,19.0,60,-99.99,,,-99.99,,2013-03-20 11:03:00,
2013-03-20 06:12:00,7.0,-4.0,-100.00,East,85,11.0,19.0,60,-99.99,,,-99.99,,2013-03-20 11:12:00,
2013-03-20 06:22:00,7.0,-4.0,-100.00,East,85,11.0,19.0,60,-99.99,,,-99.99,,2013-03-20 11:22:00,
2013-03-20 06:52:00,6.0,-4.0,-100.00,NE,50,12.0,21.0,62,-99.99,,,-99.99,,2013-03-20 11:52:00,
2013-03-20 07:02:00,6.0,-4.0,-100.00,NE,50,12.0,21.0,62,-99.99,,,-99.99,,2013-03-20 12:02:00,
2013-03-20 07:12:00,6.0,-4.0,-100.00,NE,50,12.0,21.0,62,-99.99,,,-99.99,,2013-03-20 12:12:00,
2013-03-20 07:22:00,6.0,-4.0,-100.00,NE,50,12.0,21.0,62,-99.99,,,-99.99,,2013-03-20 12:22:00,
2013-03-20 07:52:00,6.0,-4.0,-100.00,West,260,9.0,18.0,64,-99.99,,,-99.99,,2013-03-20 12:52:00,
2013-03-20 08:03:00,6.0,-4.0,-100.00,West,260,9.0,18.0,64,-99.99,,,-99.99,,2013-03-20 13:03:00,
2013-03-20 08:12:00,6.0,-4.0,-100.00,West,260,9.0,18.0,64,-99.99,,,-99.99,,2013-03-20 13:12:00,
2013-03-20 08:22:00,6.0,-4.0,-100.00,West,260,9.0,18.0,64,-99.99,,,-99.99,,2013-03-20 13:22:00,
2013-03-20 08:53:00,7.0,-2.0,-100.00,ENE,60,13.0,22.0,65,-99.99,,,-99.99,,2013-03-20 13:53:00,
2013-03-20 09:03:00,7.0,-2.0,-100.00,ENE,60,13.0,22.0,65,-99.99,,,-99.99,,2013-03-20 14:03:00,
2013-03-20 09:12:00,7.0,-2.0,-100.00,ENE,60,13.0,22.0,65,-99.99,,,-99.99,,2013-03-20 14:12:00,
2013-03-20 09:23:00,7.0,-2.0,-100.00,ENE,60,13.0,22.0,65,-99.99,,,-99.99,,2013-03-20 14:23:00,
2013-03-20 09:53:00,9.0,-1.0,-100.00,SW,235,15.0,22.0,64,-99.99,,,-99.99,,2013-03-20 14:53:00,
2013-03-20 10:02:00,9.0,-1.0,-100.00,SW,235,15.0,22.0,64,-99.99,,,-99.99,,2013-03-20 15:02:00,
2013-03-20 10:12:00,9.0,-1.0,-100.00,SW,235,15.0,22.0,64,-99.99,,,-99.99,,2013-03-20 15:12:00,
2013-03-20 10:22:00,9.0,-1.0,-100.00,SW,235,15.0,22.0,64,-99.99,,,-99.99,,2013-03-20 15:22:00,
2013-03-20 10:53:00,11.0,0.0,-100.00,SSW,195,12.0,21.0,62,-99.99,,,-99.99,,2013-03-20 15:53:00,
2013-03-20 11:03:00,11.0,0.0,-100.00,SSW,195,12.0,21.0,62,-99.99,,,-99.99,,2013-03-20 16:03:00,
2013-03-20 11:12:00,11.0,0.0,-100.00,SSW,195,12.0,21.0,62,-99.99,,,-99.99,,2013-03-20 16:12:00,
2013-03-20 11:23:00,11.0,0.0,-100.00,SSW,195,12.0,21.0,62,-99.99,,,-99.99,,2013-03-20 16:23:00,
2013-03-20 11:53:00,14.0,2.0,-100.00,ENE,60,12.0,24.0,61,-99.99,,,-99.99,,2013-03-20 16:53:00,
2013-03-20 12:03:00,14.0,2.0,-100.00,ENE,60,12.0,24.0,61,-99.99,,,-99.99,,2013-03-20 17:03:00,
2013-03-20 12:12:00,14.0,2.0,-100.00,ENE,60,12.0,24.0,61,-99.99,,,-99.99,,2013-03-20 17:12:00,
2013-03-20 12:22:00,14.0,2.0,-100.00,ENE,60,12.0,24.0,61,-99.99,,,-99.99,,2013-03-20 17:22:00,
2013-03-20 12:53:00,15.0,3.0,-100.00,ENE,65,16.0,22.0,59,-99.99,,,-99.99,,2013-03-20 17:53:00,
2013-03-20 13:02:00,15.0,3.0,-100.00,ENE,65,16.0,22.0,59,-99.99,,,-99.99,,2013-03-20 18:02:00,
2013-03-20 13:12:00,15.0,3.0,-100.00,ENE,65,16.0,22.0,59,-99.99,,,-99.99,,2013-03-20 18:12:00,
2013-03-20 13:22:00,15.0,3.0,-100.00,ENE,65,16.0,22.0,59,-99.99,,,-99.99,,2013-03-20 18:22:00,
2013-03-20 13:43:00,17.0,4.0,-100.00,North,10,10.0,18.0,56,-99.99,,,-99.99,,2013-03-20 18:43:00,
2013-03-20 13:53:00,17.0,4.0,-100.00,North,10,10.0,18.0,56,-99.99,,,-99.99,,2013-03-20 18:53:00,
2013-03-20 14:02:00,17.0,4.0,-100.00,North,10,10.0,18.0,56,-99.99,,,-99.99,,2013-03-20 19:02:00,
2013-03-20 14:12:00,17.0,4.0,-100.00,North,10,10.0,18.0,56,-99.99,,,-99.99,,2013-03-20 19:12:00,
2013-03-20 14:42:00,17.0,3.0,-100.00,North,0,14.0,22.0,55,-99.99,,,-99.99,,2013-03-20 19:42:00,
2013-03-20 14:53:00,17.0,3.0,-100.00,North,0,14.0,22.0,55,-99.99,,,-99.99,,2013-03-20 19:53:00,
2013-03-20 15:02:00,17.0,3.0,-100.00,North,0,14.0,22.0,55,-99.99,,,-99.99,,2013-03-20 20:02:00,
2013-03-20 15:13:00,17.0,3.0,-100.00,North,0,14.0,22.0,55,-99.99,,,-99.99,,2013-03-20 20:13:00,
2013-03-20 15:43:00,18.0,4.0,-100.00,SSW,195,12.0,22.0,54,-99.99,,,-99.99,,2013-03-20 20:43:00,
2013-03-20 15:53:00,18.0,4.0,-100.00,SSW,195,12.0,22.0,54,-99.99,,,-99.99,,2013-03-20 20:53:00,
2013-03-20 16:02:00,18.0,4.0,-100.00,SSW,195,12.0,22.0,54,-99.99,,,-99.99,,2013-03-20 21:02:00,
2013-03-20 16:12:00,18.0,4.0,-100.00,SSW,195,12.0,22.0,54,-99.99,,,-99.99,,2013-03-20 21:12:00,
2013-03-20 16:42:00,18.0,4.0,-100.00,SW,215,15.0,21.0,54,-99.99,,,-99.99,,2013-03-20 21:42:00,
2013-03-20 16:53:00,18.0,4.0,-100.00,SW,215,15.0,21.0,54,-99.99,,,-99.99,,2013-03-20 21:53:00,
2013-03-20 17:03:00,18.0,4.0,-100.00,SW,215,15.0,21.0,54,-99.99,,,-99.99,,2013-03-20 22:03:00,
2013-03-20 17:12:00,18.0,4.0,-100.00,SW,215,15.0,21.0,54,-99.99,,,-99.99,,2013-03-20 22:12:00,
2013-03-20 17:43:00,18.0,4.0,-100.00,North,10,13.0,23.0,54,-99.99,,,-99.99,,2013-03-20 22:43:00,
2013-03-20 17:53:00,18.0,4.0,-100.00,North,10,13.0,23.0,54,-99.99,,,-99.99,,2013-03-20 22:53:00,
2013-03-20 18:02:00,18.0,4.0,-100.00,North,10,13.0,23.0,54,-99.99,,,-99.99,,2013-03-20 23:02:00,
2013-03-20 18:12:00,18.0,4.0,-100.00,North,10,13.0,23.0,54,-99.99,,,-99.99,,2013-03-20 23:12:00,
2013-03-20 18:43:00,17.0,3.0,-100.00,SSE,155,12.0,19.0,54,-99.99,,,-99.99,,2013-03-20 23:43:00,
2013-03-20 18:53:00,17.0,3.0,-100.00,SSE,155,12.0,19.0,54,-99.99,,,-99.99,,2013-03-20 23:53:00,
2013-03-20 19:02:00,17.0,3.0,-100.00,SSE,155,12.0,19.0,54,-99.99,,,-99.99,,2013-03-21 00:02:00,
2013-03-20 19:12:00,17.0,3.0,-100.00,SSE,155,12.0,19.0,54,-99.99,,,-99.99,,2013-03-21 00:12:00,
2013-03-20 19:42:00,16.0,3.0,-100.00,SSW,205,6.0,14.0,55,-99.99,,,-99.99,,2013-03-21 00:42:00,
2013-03-20 19:52:00,16.0,3.0,-100.00,SSW,205,6.0,14.0,55,-99.99,,,-99.99,,2013-03-21 00:52:00,
2013-03-20 20:02:00,16.0,3.0,-100.00,SSW,205,6.0,14.0,55,-99.99,,,-99.99,,2013-03-21 01:02:00,
2013-03-20 20:12:00,16.0,3.0,-100.00,SSW,205,6.0,14.0,55,-99.99,,,-99.99,,2013-03-21 01:12:00,
2013-03-20 20:42:00,14.0,2.0,-100.00,West,275,4.0,7.0,58,-99.99,,,-99.99,,2013-03-21 01:42:00,
2013-03-20 20:53:00,14.0,2.0,-100.00,West,275,4.0,7.0,58,-99.99,,,-99.99,,2013-03-21 01:53:00,
2013-03-20 21:02:00,14.0,2.0,-100.00,West,275,4.0,7.0,58,-99.99,,,-99.99,,2013-03-21 02:02:00,
2013-03-20 21:12:00,14.0,2.0,-100.00,West,275,4.0,7.0,58,-99.99,,,-99.99,,2013-03-21 02:12:00,
2013-03-20 22:02:00,13.0,2.0,-100.00,SSW,195,2.0,4.0,62,-99.99,,,-99.99,,2013-03-21 03:02:00,
2013-03-20 22:12:00,13.0,2.0,-100.00,SSW,195,2.0,4.0,62,-99.99,,,-99.99,,2013-03-21 03:12:00,
2013-03-20 22:43:00,10.0,1.0,-100.00,South,175,1.0,4.0,66,-99.99,,,-99.99,,2013-03-21 03:43:00,
2013-03-20 22:53:00,10.0,1.0,-100.00,South,175,1.0,4.0,66,-99.99,,,-99.99,,2013-03-21 03:53:00,
2013-03-20 23:03:00,10.0,1.0,-100.00,South,175,1.0,4.0,66,-99.99,,,-99.99,,2013-03-21 04:03:00,
2013-03-20 23:13:00,10.0,1.0,-100.00,South,175,1.0,4.0,66,-99.99,,,-99.99,,2013-03-21 04:13:00,
2013-03-20 23:43:00,7.0,0.0,-100.00,East,95,2.0,5.0,72,-99.99,,,-99.99,,2013-03-21 04:43:00,
2013-03-20 23:53:00,7.0,0.0,-100.00,East,95,2.0,5.0,72,-99.99,,,-99.99,,2013-03-21 04:53:00,